ARIANE 40+ R/B, 23561

Orbit data source: Space-Track

ARIANE 40+ R/B, 23561 is space debris in SSO originally from a launch on Fri, 21 Apr 1995 UTC launched from the French Guiana (FRGUI). Debris objects in space refer to the collection of defunct objects orbiting the Earth. Examples of debris include non-operational satellites, rocket bodies, and fragments generated from explosions, collisions, or faulty payload assembly.

Loading next visibility...
Identifier
23561, 1995-021B
Orbit
SSO
Country
Flag of FRFR
Related business
Manufacturer
Ae/LesM
Mission
Spacecraft
Bus & Motor
ARIANE H10+, Unknown motor
Mass
1,820 kg wet, 1,820 kg dry
Launch date (UTC)
1995-04-21 (31 years ago)
Launch vehicle
Unknown
Launch site
French Guiana (FRGUI)
Object type
Payload
Rocket body
Debris
Shape & HBR
Cyl, 6.0 m
Radar Cross Section
27.363 m², Large (>1 m²)

Expand to show TLE details & history
Last TLE update: 2 days ago

TLE from 2 days ago
0 ARIANE 40+ R/B
1 23561U 95021B   26171.44974659  .00000182  00000-0  71985-4 0  9994
2 23561  98.4410 241.4776 0006659 183.5948 187.0806 14.39834891634036
Epoch: 2026-06-20T10:47Z
TLE epoch observation values (Epoch: 2026-06-20T10:47:38.105Z)
Latitude
10.49703°
Longitude
169.33742°
Altitude
765.96 km
Speed
7.47 km/s
True Right ascension
15h 59m 38s
True Declination
10° 26' 08"
Sunlit
Object was in full shadow at epoch
Visualization orbit readout
Latitude
Unknown
Longitude
Unknown
Altitude
Unknown
Speed
Unknown
Apparent Right ascension
Unknown
Apparent Declination
Unknown
Sunlit
N/A
Visualization observer readout
Local Sidereal Time
23:08:26
Azimuth
Unknown
Elevation
Unknown
Doppler factor
Unknown
Orbital elements
Apogee altitude
760.914 km
Perigee altitude
751.413 km
Semi-major axis
7,134.3 km
Eccentricity
0.00067
Inclination
98.441°
RAAN
241.4776°
Arg. of periapsis
183.5948°
True anomaly
187.0712°
Mean anomaly
187.0806°
Eccentric anomaly
187.0759°
Mean motion
3.60177 °/min
Orbital period
99.95 mins
BSTAR
0.000071985
Loading maneuver chart data...
Computing Atmospheric mass density...
Loading historical data...
Loading historical data...
Loading historical data...
Loading historical data...
Loading historical data...
Loading historical data...
Loading historical data...

Documentation

Showing up to 5 results
|